Flag for Nepal Weather past 2 weeks in Kathmandu, Nepal

Now
46 °F

Fog.


Feels Like: 46 °F
Forecast: 30 / 66 °F
Wind: No wind

Location: Kathmandu Airport

Current Time: Mar 4, 2015 at 6:18:44 AM

Latest Report: Mar 4, 2015 at 5:35 AM


Visibility: 0 mi

Pressure: 29.92 "Hg

Humidity: 93%

Dew point: 45 °F

Location of KathmanduLocation

Historic Weather in Kathmandu — Graph

°F

Kathmandu temperature yesterday

Maximum temperature yesterday: 64 °F (at 11:35 AM)
Minimum temperature yesterday: 48 °F (at 3:35 AM)
Average temperature yesterday: 55 °F

Past Weeks' High & Low Weather Summary

 TemperatureHumidityPressure
High72 °F (Feb 22, 1:35 PM)100% (Feb 20, 3:35 AM)30.33 "Hg (Feb 20, 3:35 AM)
Low45 °F (Feb 19, 4:35 AM)27% (Feb 28, 1:35 PM)29.92 "Hg (Mar 3, 3:35 PM)
Average57 °F78%30.08 "Hg
* Reported Feb 17 4:35 AM — Mar 4 4:35 AM, Kathmandu, Weather by CustomWeather, © 2015

Note: Actual official high and low records may vary slightly from our data, if they occured in-between our weather recording intervals... More about our weather records

Advertising

Kathmandu weather history for previous 24 hours

 ConditionsComfort  
Time TempWeatherWind HumidityBarometerVisibility
4:35 AM
Wed, Mar 4
46 °FPassing clouds.No wind100%29.92 "Hg4 mi
3:35 AM46 °FPassing clouds.No wind100%29.92 "Hg4 mi
2:35 AM48 °FPassing clouds.No wind100%29.92 "Hg4 mi
1:35 AM50 °FPartly cloudy.5 mph94%29.95 "Hg5 mi
12:35 AM50 °FPartly cloudy.2 mph94%29.98 "Hg5 mi
11:35 PM
Tue, Mar 3
52 °FPartly cloudy.2 mph88%29.98 "Hg5 mi
10:35 PM52 °FPartly cloudy.2 mph88%30.01 "Hg5 mi
9:35 PM54 °FPassing clouds.5 mph82%30.01 "Hg5 mi
8:35 PM54 °FPassing clouds.6 mph82%29.98 "Hg5 mi
6:35 PM57 °FScattered clouds.5 mph82%29.95 "HgN/A
5:35 PM59 °FScattered clouds.No wind77%29.92 "Hg5 mi
4:35 PM59 °FBroken clouds.7 mph77%29.92 "Hg5 mi
3:35 PM64 °FScattered clouds.7 mph64%29.92 "Hg5 mi
2:35 PM63 °FScattered clouds.5 mph64%29.95 "Hg5 mi
1:35 PM63 °FScattered clouds.8 mph68%29.98 "Hg5 mi
12:35 PM64 °FScattered clouds.3 mph60%30.01 "Hg4 mi
11:35 AM64 °FScattered clouds.3 mph60%30.04 "Hg4 mi
10:35 AM59 °FScattered clouds.No wind72%30.07 "Hg4 mi
9:35 AM54 °FFog.No wind88%30.09 "Hg2 mi
8:35 AM50 °FLight rain. Broken clouds.2 mph100%30.07 "Hg1 mi
7:35 AM50 °FLight rain. More clouds than sun.3 mph100%30.07 "Hg1 mi
6:35 AM50 °FLight rain. Mostly cloudy.2 mph100%30.04 "Hg1 mi
Weather by CustomWeather, © 2015

See weather overviewHow to use our weather pages